782  
ASUS44 KSHV 310610  
RWRSHV  
 
THE FOUR STATE AREA WEATHER ROUNDUP  
NATIONAL WEATHER SERVICE SHREVEPORT LA  
100 AM CDT SUN MAY 31 2020  
 
NOTE: "FAIR" INDICATES FEW OR NO CLOUDS BELOW 12000 FEET  
WITH NO SIGNIFICANT WEATHER AND/OR S TO VISIBILITY
.  
 
!LAZ001-LAZ014-TXZ097-310700  
SHREVEPORT...MONROE...TEXARKANA RADIOS  
 
CITY SKY/WX TMP DP RH WIND PRES REMARKS
 
SHREVEPORT PTCLDY 71 60 68 E9 30.10S  
MONROE CLEAR 70 59 68 NE5 30.11S  
NATCHITOCHES CLEAR 69 65 85 CALM 30.09S  
TEXARKANA PTCLDY 66 59 78 CALM 30.13S  

 
 
!LAZ001-LAZ014-TXZ097-310700  
OTHER LOCATIONS...  
 
CITY SKY/WX TMP DP RH WIND PRES REMARKS
 
DOWNTOWN SHV CLEAR 71 61 70 NE3 30.11R  
BOSSIER CITY CLEAR 68 59 73 NE3 30.10S  
RUSTON CLEAR 63 60 90 CALM 30.14F  
LITTLE ROCK CLEAR 65 57 75 CALM 30.15R  
EL DORADO PTCLDY 65 62 90 CALM 30.12S  
JACKSON CLEAR 65 61 87 CALM 30.09S  
NEW ORLEANS PTCLDY 77 72 84 W3 30.04F  
HOUSTON LGT RAIN 76 69 79 NE14 30.05F  
LUFKIN CLEAR 72 64 76 NE3 30.09S  
TYLER CLEAR 70 58 65 NE5 30.11S  
DAL FT WORTH PTCLDY 72 60 66 E5 30.10R  

 
 
!TXZ136-TXZ165-310700  
TYLER...LUFKIN RADIOS  
 
CITY SKY/WX TMP DP RH WIND PRES REMARKS
 
TYLER CLEAR 70 58 65 NE5 30.11S  
GILMER CLEAR 69 58 69 CALM 30.12R  
LONGVIEW PTCLDY 66 59 78 CALM 30.10S  
LUFKIN CLEAR 72 64 76 NE3 30.09S  

 
 
!TXZ136-TXZ165-310700  
OTHER LOCATIONS...  
 
CITY SKY/WX TMP DP RH WIND PRES REMARKS
 
NACOGDOCHES CLEAR 65 63 93 CALM 30.10S  
BEAUMONT PTCLDY 73 73 100 N3 30.04F  
HOUSTON LGT RAIN 76 69 79 NE14 30.05F  
COLLEGE STN PTCLDY 75 67 76 NE6 30.07S  
AUSTIN MOCLDY 70 66 87 CALM 30.07S  
DAL FT WORTH PTCLDY 72 60 66 E5 30.10R  
TEXARKANA PTCLDY 66 59 78 CALM 30.13S  
SHREVEPORT PTCLDY 71 60 68 E9 30.10S  
FORT POLK CLEAR 71 65 81 N3 30.06F  
LAKE CHARLES CLOUDY 75 72 90 NE5 30.05S  

 
 
 
CLICK HERE TO GO TO PREVIOUS BULLETINS.

The Nexlab LA Page
The Nexlab TX Page
The Nexlab AR Page
The Nexlab OK Page Main Text Page